Oconto, WI

6:31 PM CST on December 15, 2019 (GMT -0600)
Oconto Municipal

Weather History for KOCQ - October, 2019

Change the Weather History Date:

Monday, October 21, 2019

  Actual Average Record
Temperature  
Mean Temperature 49 °F -  
Max Temperature 56 °F 56 °F 71 °F (2017)
Min Temperature 42 °F 34 °F 27 °F (2018)
Degree Days  
Heating Degree Days 16    
Moisture  
Dew Point 48 °F    
Average Humidity 88    
Maximum Humidity 99    
Minimum Humidity 68    
Precipitation  
Precipitation 0.22 in - - ()
Sea Level Pressure  
Sea Level Pressure 29.56 in    
Wind  
Wind Speed 9 mph (SE)    
Max Wind Speed 22 mph    
Max Gust Speed 34 mph    
Visibility 9 miles    
Events      
Averages and records for this station are not official NWS values.
T = Trace of Precipitation, MM = Missing Value Source: NWS Daily Summary

Daily Weather History Graph

Daily Weather History Graph

Search for Another Location

Airport or City:

Astronomy

Oct. 21, 2019 Rise Set
Actual Time 7:14 AM CDT 5:57 PM CDT
Civil Twilight 6:44 AM CDT 6:26 PM CDT
Nautical Twilight 6:10 AM CDT 7:00 PM CDT
Astronomical Twilight 5:36 AM CDT 7:34 PM CDT
Moon No Moon Rise 2:41 PM CDT (10/21)
Length of Visible Light 11h 41m
Length of Day
10h 42m
Waning Gibbous, 48% of the Moon is Illuminated
Oct 21
Waning Gibbous
Oct 27
New
Nov 4
First Quarter
Nov 12
Full
Nov 19
Last Quarter

Hourly Weather History & Observations

Time (CDT) Temp. Windchill Dew Point Humidity Pressure Visibility Wind Dir Wind Speed Gust Speed Precip Events Conditions
12:15 AM 42.3 °F - 42.1 °F 99% 29.94 in 4.0 mi Calm Calm - N/A   Clear
12:35 AM 43.5 °F - 42.6 °F 97% 29.94 in 10.0 mi Calm Calm - N/A   Clear
12:55 AM 43.5 °F 41.9 °F 43.0 °F 98% 29.93 in 10.0 mi NE 3.5 mph - N/A   Clear
1:15 AM 45.7 °F 43.4 °F 43.3 °F 92% 29.93 in 10.0 mi ENE 4.6 mph - N/A   Clear
1:35 AM 45.5 °F 44.2 °F 43.7 °F 93% 29.93 in 10.0 mi ENE 3.5 mph - N/A   Clear
1:55 AM 45.5 °F 42.5 °F 44.1 °F 95% 29.92 in 10.0 mi NE 5.8 mph - N/A   Clear
2:15 AM 47.1 °F - 46.2 °F 97% 29.91 in 10.0 mi East 5.8 mph - N/A   Mostly Cloudy
2:35 AM 47.7 °F - 47.3 °F 99% 29.89 in 5.0 mi East 6.9 mph - N/A   Overcast
2:55 AM 48.2 °F - 47.8 °F 99% 29.88 in 4.0 mi East 5.8 mph - N/A   Overcast
3:15 AM 48.9 °F - 48.4 °F 98% 29.88 in 5.0 mi East 6.9 mph - N/A   Overcast
3:35 AM 49.1 °F - 48.6 °F 98% 29.86 in 7.0 mi East 4.6 mph - N/A   Mostly Cloudy
3:55 AM 49.3 °F - 48.7 °F 98% 29.86 in 10.0 mi East 5.8 mph - N/A   Scattered Clouds
4:15 AM 50.0 °F - 49.1 °F 97% 29.86 in 10.0 mi East 5.8 mph - N/A   Scattered Clouds
4:35 AM 50.4 °F - 49.1 °F 95% 29.85 in 10.0 mi ENE 6.9 mph - N/A   Mostly Cloudy
4:55 AM 50.9 °F - 49.1 °F 94% 29.84 in 10.0 mi East 6.9 mph - N/A   Overcast
5:15 AM 50.9 °F - 48.6 °F 92% 29.83 in 10.0 mi East 8.1 mph - N/A   Mostly Cloudy
5:35 AM 50.9 °F - 48.6 °F 92% 29.81 in 10.0 mi ESE 8.1 mph - N/A   Overcast
5:55 AM 51.1 °F - 48.6 °F 91% 29.80 in 10.0 mi East 6.9 mph - N/A   Overcast
6:15 AM 51.3 °F - 48.6 °F 90% 29.79 in 10.0 mi ESE 10.4 mph 16.1 mph N/A   Overcast
6:35 AM 51.3 °F - 48.6 °F 90% 29.77 in 10.0 mi ESE 12.7 mph 17.3 mph N/A   Mostly Cloudy
6:55 AM 51.3 °F - 48.4 °F 90% 29.76 in 10.0 mi ESE 11.5 mph - N/A   Scattered Clouds
7:15 AM 52.0 °F - 48.2 °F 87% 29.75 in 10.0 mi ESE 11.5 mph 17.3 mph N/A   Mostly Cloudy
7:35 AM 52.5 °F - 47.8 °F 84% 29.74 in 10.0 mi ESE 11.5 mph 17.3 mph N/A   Overcast
7:55 AM 52.7 °F - 47.7 °F 83% 29.73 in 10.0 mi ESE 13.8 mph 19.6 mph N/A   Overcast
8:15 AM 53.1 °F - 47.3 °F 81% 29.71 in 10.0 mi ESE 13.8 mph 25.3 mph N/A   Overcast
8:35 AM 53.2 °F - 46.9 °F 79% 29.71 in 10.0 mi ESE 15.0 mph 25.3 mph N/A   Overcast
8:55 AM 53.6 °F - 46.6 °F 77% 29.70 in 10.0 mi ESE 18.4 mph 26.5 mph N/A   Overcast
9:15 AM 53.6 °F - 46.6 °F 77% 29.68 in 10.0 mi ESE 20.7 mph 27.6 mph N/A   Overcast
9:35 AM 53.6 °F - 46.2 °F 76% 29.67 in 10.0 mi ESE 16.1 mph 25.3 mph N/A   Overcast
9:55 AM 53.8 °F - 46.2 °F 76% 29.64 in 10.0 mi East 18.4 mph 27.6 mph N/A   Overcast
10:15 AM 53.8 °F - 46.2 °F 76% 29.61 in 10.0 mi ESE 19.6 mph 27.6 mph N/A   Overcast
10:35 AM 54.0 °F - 46.0 °F 75% 29.59 in 10.0 mi ESE 16.1 mph 23.0 mph N/A   Overcast
10:55 AM 54.0 °F - 46.6 °F 76% 29.56 in 10.0 mi ESE 21.9 mph 29.9 mph N/A   Overcast
11:15 AM 53.8 °F - 47.1 °F 78% 29.55 in 10.0 mi ESE 19.6 mph 28.8 mph N/A   Overcast
11:35 AM 52.9 °F - 48.4 °F 85% 29.52 in 10.0 mi ESE 17.3 mph 25.3 mph N/A   Overcast
11:55 AM 53.1 °F - 48.4 °F 84% 29.48 in 10.0 mi East 20.7 mph 27.6 mph N/A   Overcast
12:15 PM 53.1 °F - 48.9 °F 86% 29.47 in 10.0 mi ESE 19.6 mph 34.5 mph N/A   Overcast
12:35 PM 52.7 °F - 49.3 °F 88% 29.44 in 7.0 mi East 17.3 mph 28.8 mph 0.01 in   Overcast
12:55 PM 52.2 °F - 50.2 °F 93% 29.42 in 4.0 mi ESE 19.6 mph 28.8 mph 0.04 in   Overcast
1:15 PM 52.7 °F - 50.9 °F 94% 29.40 in 5.0 mi ESE 21.9 mph 28.8 mph 0.01 in   Overcast
1:35 PM 52.7 °F - 51.1 °F 94% 29.38 in 7.0 mi ESE 19.6 mph 29.9 mph 0.04 in   Overcast
1:55 PM 53.2 °F - 51.8 °F 95% 29.36 in 7.0 mi ESE 19.6 mph 28.8 mph 0.04 in   Overcast
2:15 PM 53.6 °F - 52.0 °F 94% 29.35 in 3.0 mi SE 19.6 mph 26.5 mph N/A   Overcast
2:35 PM 54.5 °F - 53.2 °F 96% 29.34 in 4.0 mi SE 19.6 mph 27.6 mph 0.01 in   Overcast
2:55 PM 54.7 °F - 53.6 °F 96% 29.33 in 3.0 mi SSE 20.7 mph 28.8 mph 0.07 in   Overcast
3:15 PM 54.9 °F - 53.8 °F 96% 29.33 in 5.0 mi SSE 15.0 mph 29.9 mph 0.05 in   Overcast
3:35 PM 55.0 °F - 53.8 °F 96% 29.33 in 7.0 mi South 12.7 mph 24.2 mph 0.07 in   Overcast
3:55 PM 55.8 °F - 54.3 °F 95% 29.33 in 10.0 mi SSE 16.1 mph 23.0 mph 0.07 in   Overcast
4:15 PM 55.9 °F - 54.0 °F 93% 29.32 in 10.0 mi SSE 13.8 mph 26.5 mph N/A   Overcast
4:35 PM 55.9 °F - 53.8 °F 92% 29.32 in 10.0 mi South 10.4 mph 23.0 mph N/A   Overcast
4:55 PM 56.5 °F - 53.6 °F 90% 29.32 in 10.0 mi SSE 11.5 mph 23.0 mph N/A   Mostly Cloudy
5:15 PM 56.5 °F - 53.8 °F 91% 29.32 in 10.0 mi SSE 11.5 mph 18.4 mph N/A   Mostly Cloudy
5:35 PM 55.6 °F - 53.6 °F 93% 29.32 in 10.0 mi SSE 13.8 mph 17.3 mph N/A   Scattered Clouds
5:55 PM 54.7 °F - 53.1 °F 94% 29.33 in 10.0 mi SSE 10.4 mph 17.3 mph N/A   Clear
6:15 PM 54.5 °F - 52.9 °F 94% 29.33 in 10.0 mi SSE 12.7 mph 18.4 mph N/A   Scattered Clouds
6:35 PM 54.1 °F - 52.9 °F 95% 29.33 in 10.0 mi SSE 10.4 mph 16.1 mph N/A   Scattered Clouds
6:55 PM 54.0 °F - 52.9 °F 96% 29.33 in 10.0 mi South 6.9 mph - N/A   Overcast
7:15 PM 54.5 °F - 53.1 °F 95% 29.34 in 10.0 mi SSE 9.2 mph 21.9 mph N/A   Overcast
7:35 PM 54.5 °F - 52.9 °F 94% 29.35 in 10.0 mi South 9.2 mph - N/A   Scattered Clouds
7:55 PM 54.5 °F - 52.7 °F 94% 29.35 in 10.0 mi South 9.2 mph - N/A   Clear
8:15 PM 55.0 °F - 50.9 °F 86% 29.36 in 10.0 mi SSW 6.9 mph 17.3 mph N/A   Clear
8:35 PM 54.7 °F - 47.8 °F 78% 29.36 in 10.0 mi SSW 5.8 mph - N/A   Clear
8:55 PM 54.1 °F - 45.1 °F 72% 29.36 in 10.0 mi SSW 6.9 mph - N/A   Clear
9:15 PM 53.8 °F - 43.7 °F 69% 29.36 in 10.0 mi SSW 6.9 mph - N/A   Mostly Cloudy
9:35 PM 53.2 °F - 43.0 °F 68% 29.36 in 10.0 mi South 4.6 mph - N/A   Overcast
9:55 PM 52.7 °F - 43.0 °F 70% 29.36 in 10.0 mi South 3.5 mph - N/A   Overcast
10:15 PM 52.5 °F - 43.5 °F 71% 29.37 in 10.0 mi SSW 12.7 mph 20.7 mph N/A   Overcast
10:35 PM 50.7 °F - 43.9 °F 77% 29.37 in 10.0 mi SSW 10.4 mph 18.4 mph N/A   Overcast
10:55 PM 50.0 °F - 43.3 °F 78% 29.37 in 10.0 mi SSW 9.2 mph - N/A   Overcast
11:15 PM 50.0 °F - 42.4 °F 75% 29.37 in 10.0 mi SSW 6.9 mph - N/A   Overcast
11:35 PM 49.5 °F - 41.7 °F 75% 29.36 in 10.0 mi SSW 8.1 mph - N/A   Mostly Cloudy
11:55 PM 48.9 °F - 40.6 °F 73% 29.36 in 10.0 mi South 4.6 mph - N/A   Scattered Clouds